Regional Weather Roundup
Issued by NWS

Home | Current Version | Previous Version | Text Only | Print | Product List | Glossary Off
Versions: 1 2 3 4 5 6 7 8 9 10 11 12 13 14 15 16 17 18 19 20 21 22 23 24 25 26 27 28 29 30 31 32 33 34 35 36 37 38 39 40 41 42 43 44 45 46 47 48 49 50

677
ASUS45 KCYS 232210
RWRWY

WYOMING REGIONAL WEATHER ROUNDUP
NATIONAL WEATHER SERVICE CHEYENNE WY
400 PM MDT MON OCT 23 2017

NOTE:  "FAIR" INDICATES FEW OR NO CLOUDS BELOW 12,000 FEET
WITH NO SIGNIFICANT WEATHER AND/OR OBSTRUCTIONS TO VISIBILITY.

WYZ001-232300-
YELLOWSTONE NATIONAL PARK

CITY           SKY/WX    TMP DP  RH WIND       PRES   REMARKS
LK YELLOWSTONE   N/A     41  32  70 W9G18     30.61S
W YELLOWSTONE  NOT AVBL

$$
WYZ002>013-054>058-071-098>099-232300-
NORTHERN WYOMING

CITY           SKY/WX    TMP DP  RH WIND       PRES   REMARKS
JACKSON        FAIR      48  19  31 W7        30.60R
CODY           FAIR      56  16  20 N12       30.52R
GREYBULL       FAIR      58  13  17 NW22G33   30.49R
WORLAND        FAIR      57  18  21 N16G23    30.49R
SHERIDAN       FAIR      56  21  25 NW30G37   30.48R
BUFFALO        FAIR      51  15  23 N28G41    30.47R
GILLETTE       FAIR      50  18  28 NW24G32   30.43R
HULETT         FAIR      52  19  28 NW18G24   30.41S
NEWCASTLE      FAIR      52  16  24 NW24G40   30.41S

$$
WYZ014>020-022>026-101>103-232300-
CENTRAL WYOMING

CITY           SKY/WX    TMP DP  RH WIND       PRES   REMARKS
BIG PINEY      FAIR      52  17  25 N18       30.56R
PINEDALE       FAIR      48  12  23 NW22G28   30.56R
DUBOIS         FAIR      45  18  33 NW12G21   30.55R
LANDER         FAIR      56  12  17 N18G25    30.46S
RIVERTON       FAIR      54  18  24 E13       30.49R
CASPER         FAIR      53  14  21 NW22      30.48R
DOUGLAS        FAIR      53  19  26 NW20G35   30.45R

$$
WYZ021-027>030-104>119-232300-
SOUTHERN WYOMING

CITY           SKY/WX    TMP DP  RH WIND       PRES   REMARKS
EVANSTON       FAIR      55  16  21 NW12      30.61F
KEMMERER       FAIR      50  19  29 W22G32    30.59S
FORT BRIDGER   FAIR      54  20  26 W18G28    30.61R
ROCK SPRINGS   FAIR      55  16  21 W20G28    30.52S
DIXON          FAIR      56  21  26 W18       30.52S
RAWLINS        FAIR      54  19  25 NW15G22   30.49R
SARATOGA       FAIR      52  21  30 NW16G28   30.50S
LARAMIE        FAIR      49  20  31 NW24      30.44R
CHEYENNE       FAIR      52  15  23 N22G36    30.40S
TORRINGTON     FAIR      56  16  20 N22G37    30.39R
PINE BLUFFS    FAIR      52  18  25 NW22G28   30.41S

$$




USA.gov is the U.S. government's official web portal to all federal, state and local government web resources and services.